[[{"header":{"parameterUnit":"m.s-1","parameterCategory":1,"la1":30.2991,"la2":30.254,"lo1":-89.0895,"lo2":-89.0444,"dy":0.0017,"dx":0.0017,"nx":28,"ny":28,"refTime":"2024-12-26T09:00:00:Z","depth":0,"parameterNumber":2,"parameterNumberName":"U-component_of_WINDS"},"data":[0,0,0,0,0,0,0,0,0,0,0,0,0,0,0,0,0,0,0,0,0,0,0,0,0,0,0,0,0,0,0,0,0,0,0,0,0,0,0,0,0,0,0,0,0,0,0,0,0,0,0,0,0,0,0,0,0,0,0.2677,0.2676,0,0.2539,0.2537,0.2536,0.2421,0.242,0.2419,0.2418,0.2262,0.2259,0.2256,0,0,0,0,0,0,0,0,0,0,0,0,0,0.2831,0.2829,0.2678,0.2676,0.2674,0.2539,0.2537,0.2535,0.2422,0.242,0.2419,0.2418,0.2263,0.2259,0.2256,0,0,0,0,0,0,0,0,0,0,0,0,0,0.2735,0.2828,0.2678,0.2602,0.2593,0.254,0.2537,0.2535,0.2422,0.242,0.2418,0.2417,0.2264,0.226,0.2255,0.2262,0,0,0.2241,0.2239,0,0,0,0,0,0,0,0,0.2741,0.273,0.2614,0.2607,0.2597,0.2496,0.2534,0.2443,0.2422,0.2487,0.2418,0.2416,0.234,0.2329,0.2307,0.2254,0.2248,0.2241,0.2238,0.2236,0.2235,0,0,0,0,0,0,0,0.2748,0.2735,0.2622,0.2613,0.2602,0.257,0.2554,0.2516,0.2424,0.2481,0.2472,0.2458,0.2335,0.2311,0.2302,0.2245,0.2241,0.2237,0.2234,0.2232,0.2191,0.2192,0,0,0,0,0,0,0.2768,0.2741,0.2627,0.2618,0.2667,0.2569,0.2551,0.253,0.2425,0.2407,0.246,0.2453,0.232,0.2308,0.2296,0.2298,0.2236,0.2232,0.2229,0.2189,0.2191,0.2193,0,0,0,0,0,0,0.2772,0.2759,0.2632,0.2677,0.2659,0.2568,0.2545,0.2528,0.2505,0.2409,0.2391,0.2454,0.2318,0.2303,0.2272,0.2291,0.223,0.2225,0.2187,0.219,0.2192,0.2302,0,0,0,0,0,0,0.2777,0.2761,0.2766,0.2679,0.2657,0.2615,0.2546,0.2527,0.2499,0.2489,0.2398,0.2381,0.2316,0.228,0.2268,0.2284,0.2222,0.2185,0.2188,0.2191,0.2296,0.2308,0.2318,0,0,0,0,0,0.2783,0.2799,0.2767,0.2753,0.2662,0.2617,0.2604,0.2532,0.2501,0.2503,0.2441,0.2384,0.2291,0.2278,0.2263,0.2278,0.2183,0.2187,0.2191,0.2291,0.2306,0.2318,0,0,0,0,0,0,0.2886,0.2786,0.2749,0.2739,0.2688,0.2598,0.2599,0.2549,0.2502,0.2495,0.2403,0.2383,0.2363,0.2316,0.2304,0.2278,0.2229,0.223,0.2311,0.2323,0.2334,0.2346,0.2218,0,0,0,0,0,0.2909,0.2885,0.2796,0.2796,0.2772,0.269,0.2668,0.2617,0.2558,0.2535,0.2471,0.2412,0.2369,0.2343,0.2298,0.2288,0.2266,0.229,0.2301,0.2311,0.2313,0.2304,0.2314,0.2205,0.2205,0.2205,0,0,0.2954,0.2896,0.2885,0.2815,0.277,0.2743,0.2673,0.2647,0.2626,0.2529,0.2499,0.245,0.2377,0.2358,0.2345,0.2318,0.2338,0.2315,0.2324,0.2321,0.2309,0.232,0.2329,0.2208,0.2207,0.2207,0,0,0.3023,0.2977,0.2972,0.2929,0.2862,0.2807,0.2806,0.2724,0.2689,0.2658,0.2585,0.2555,0.2483,0.2436,0.2402,0.2453,0.2398,0.2439,0.2497,0.2489,0.2498,0.2505,0.2524,0.2532,0.2442,0.2442,0.2442,0,0.3086,0.3048,0.2975,0.2955,0.2926,0.2841,0.2834,0.2794,0.2714,0.2694,0.2665,0.2575,0.252,0.2488,0.2501,0.2476,0.247,0.2451,0.2504,0.251,0.2515,0.2533,0.254,0.2448,0.2447,0.2446,0.2446,0,0.3129,0.3104,0.3107,0.3039,0.3008,0.2995,0.2916,0.2894,0.2845,0.2792,0.276,0.2691,0.2632,0.262,0.257,0.258,0.2566,0.2522,0.2471,0.2533,0.2548,0.2554,0.2456,0.2454,0.2452,0.2451,0,0,0.3262,0.3154,0.3156,0.3125,0.3045,0.3021,0.3002,0.2949,0.2932,0.2878,0.2859,0.28,0.276,0.2721,0.2664,0.2658,0.2704,0.2613,0.261,0.2634,0.2711,0.2748,0.2757,0.2666,0.2667,0.2668,0.2718,0,0.332,0.3288,0.3221,0.3207,0.3182,0.3101,0.3084,0.3031,0.298,0.2947,0.2888,0.285,0.2798,0.2775,0.2764,0.2701,0.2718,0.2695,0.2645,0.2644,0.2669,0.2764,0.2802,0.2854,0.2723,0.2724,0.2725,0,0.3384,0.3342,0.3328,0.3251,0.3237,0.3224,0.317,0.3141,0.3077,0.304,0.2999,0.2938,0.2909,0.2862,0.282,0.2807,0.2781,0.2746,0.2746,0.274,0.2691,0.2763,0.2868,0.2877,0.2733,0.2732,0.2732,0,0.3485,0.3423,0.3407,0.3382,0.329,0.3283,0.3244,0.3179,0.3152,0.3102,0.3083,0.3028,0.2999,0.2956,0.2881,0.2853,0.2847,0.2793,0.2814,0.2816,0.2819,0.282,0.2924,0.2799,0.2799,0.2798,0.2798,0,0.3558,0.3553,0.3452,0.3442,0.3433,0.3354,0.3345,0.3297,0.3241,0.3218,0.314,0.3119,0.302,0.2986,0.2925,0.2901,0.2886,0.2854,0.2839,0.2863,0.2868,0.2847,0.2842,0.28,0.28,0.2799,0.2799,0,0.367,0.3602,0.358,0.3497,0.3475,0.3472,0.3398,0.3384,0.3329,0.3301,0.3289,0.3201,0.3157,0.3077,0.3008,0.2967,0.2955,0.2927,0.2979,0.297,0.2997,0.2996,0.3092,0.3101,0.2969,0.2971,0.2972,0,0.3723,0.3718,0.3635,0.3617,0.3582,0.3552,0.3525,0.3445,0.3419,0.3347,0.334,0.3292,0.3249,0.3181,0.3108,0.3055,0.3026,0.3063,0.3017,0.3042,0.3028,0.3031,0.303,0.3074,0.3076,0.3078,0.3079,0,0.3824,0.3791,0.3757,0.3712,0.3683,0.3642,0.3596,0.3584,0.3492,0.3466,0.3424,0.3391,0.3323,0.3275,0.3212,0.3165,0.3107,0.3094,0.3096,0.3122,0.3154,0.3139,0.301,0.3092,0.3091,0.309,0.3089,0.3089,0.3909,0.3901,0.3843,0.3808,0.3766,0.3726,0.3709,0.3653,0.3618,0.3561,0.3513,0.3475,0.3408,0.3319,0.3276,0.3241,0.3213,0.3216,0.3217,0.322,0.3231,0.3158,0.3228,0.3228,0.3227,0.3227,0.3227,0,0.4008,0.3967,0.3935,0.3877,0.3849,0.38,0.3746,0.3725,0.3694,0.364,0.36,0.355,0.3503,0.3427,0.3373,0.3359,0.3331,0.3348,0.3349,0.3339,0.3258,0.3262,0.3372,0.3372,0.3372,0.3372,0.3372,0.3372,0.4057,0.4042,0.4002,0.3965,0.3921,0.3888,0.3862,0.3823,0.378,0.373,0.3693,0.3645,0.358,0.3521,0.3475,0.3453,0.3437,0.3463,0.3433,0.3358,0.3345,0.3332,0.3336,0.346,0.346,0.3517,0.3518,0.3519]},{"header":{"parameterUnit":"m.s-1","parameterCategory":1,"la1":30.2991,"la2":30.254,"lo1":-89.0895,"lo2":-89.0444,"dy":0.0017,"dx":0.0017,"nx":28,"ny":28,"refTime":"2024-12-26T09:00:00:Z","depth":0,"parameterNumber":3,"parameterNumberName":"V-component_of_WINDS"},"data":[0,0,0,0,0,0,0,0,0,0,0,0,0,0,0,0,0,0,0,0,0,0,0,0,0,0,0,0,0,0,0,0,0,0,0,0,0,0,0,0,0,0,0,0,0,0,0,0,0,0,0,0,0,0,0,0,0,0,2.5981,2.5982,0,2.6048,2.6049,2.605,2.6049,2.6048,2.6047,2.6047,2.6125,2.6128,2.6131,0,0,0,0,0,0,0,0,0,0,0,0,0,2.586,2.5863,2.5981,2.5982,2.5982,2.6048,2.6049,2.605,2.6049,2.6048,2.6047,2.6046,2.6124,2.6127,2.6131,0,0,0,0,0,0,0,0,0,0,0,0,0,2.5919,2.5863,2.5981,2.599,2.5991,2.6048,2.6049,2.605,2.605,2.6048,2.6047,2.6046,2.6123,2.6127,2.6131,2.6186,0,0,2.6145,2.6147,0,0,0,0,0,0,0,0,2.5916,2.5923,2.5988,2.5989,2.5991,2.6039,2.6035,2.6096,2.605,2.6028,2.6046,2.6045,2.6098,2.6104,2.612,2.619,2.6193,2.6145,2.6148,2.615,2.6151,0,0,0,0,0,0,0,2.5912,2.5921,2.6008,2.5989,2.5991,2.5994,2.6,2.6047,2.607,2.603,2.603,2.6037,2.6099,2.6116,2.6122,2.6194,2.6145,2.6149,2.6152,2.6154,2.6314,2.6316,0,0,0,0,0,0,2.5904,2.5917,2.6006,2.601,2.5949,2.5997,2.6004,2.6025,2.6069,2.6075,2.6038,2.6037,2.6109,2.6117,2.6125,2.6193,2.615,2.6154,2.6156,2.6313,2.6315,2.6316,0,0,0,0,0,0,2.5902,2.5912,2.6003,2.5963,2.5975,2.6,2.6024,2.6027,2.6044,2.6076,2.6081,2.6051,2.6108,2.6119,2.6171,2.6195,2.6156,2.616,2.6311,2.6313,2.6316,2.6328,0,0,0,0,0,0,2.5898,2.5911,2.593,2.5964,2.5977,2.6045,2.6025,2.6029,2.6051,2.605,2.6089,2.6095,2.6108,2.6164,2.6175,2.6201,2.6163,2.6309,2.6312,2.6315,2.6326,2.6331,2.6335,0,0,0,0,0,2.5894,2.5933,2.5931,2.5942,2.6001,2.6046,2.6054,2.6066,2.6053,2.6073,2.6094,2.6093,2.6191,2.6169,2.6182,2.6209,2.6307,2.6311,2.6315,2.6324,2.633,2.6335,0,0,0,0,0,0,2.5905,2.5937,2.5936,2.5986,2.6013,2.6046,2.6072,2.6072,2.6106,2.6104,2.612,2.6129,2.6181,2.6201,2.6176,2.6265,2.6248,2.6254,2.6251,2.6257,2.6261,2.6256,2.6167,0,0,0,0,0,2.5912,2.5943,2.5972,2.6014,2.6027,2.6047,2.6067,2.6074,2.6104,2.6116,2.614,2.6172,2.621,2.6234,2.6271,2.6329,2.6338,2.6354,2.6358,2.6362,2.6368,2.6401,2.6409,2.6328,2.6328,2.6328,0,0,2.593,2.5951,2.5971,2.6016,2.6038,2.6072,2.6057,2.6094,2.6121,2.6123,2.6172,2.6191,2.6228,2.6283,2.6309,2.6301,2.6392,2.6367,2.6369,2.6373,2.6406,2.6413,2.642,2.6331,2.633,2.633,0,0,2.5979,2.5997,2.6034,2.6056,2.6087,2.6101,2.611,2.6142,2.6154,2.6204,2.6206,2.624,2.6304,2.633,2.6352,2.6411,2.6412,2.6423,2.6448,2.648,2.6486,2.6492,2.6514,2.6522,2.6428,2.6428,2.6428,0,2.5997,2.6046,2.6054,2.6091,2.6112,2.6112,2.6152,2.6173,2.6217,2.6232,2.6222,2.6303,2.6328,2.6389,2.6404,2.6421,2.6434,2.6418,2.6484,2.649,2.6496,2.6517,2.6525,2.6429,2.6429,2.6429,2.6429,0,2.6067,2.6101,2.6128,2.6166,2.6191,2.6229,2.6246,2.627,2.6274,2.629,2.6341,2.6371,2.6413,2.6429,2.6435,2.6492,2.6486,2.648,2.6463,2.6504,2.6524,2.6533,2.6431,2.643,2.643,2.643,0,0,2.6125,2.6167,2.6177,2.6194,2.6229,2.6258,2.6297,2.6335,2.6356,2.6387,2.6422,2.6476,2.647,2.6495,2.6504,2.6532,2.6579,2.6523,2.6524,2.6533,2.6645,2.665,2.6659,2.658,2.6581,2.6582,2.6642,0,2.6179,2.6244,2.6253,2.6313,2.6345,2.6346,2.6381,2.6408,2.6423,2.6456,2.6475,2.6513,2.6502,2.6517,2.6545,2.6567,2.6602,2.6563,2.6615,2.6617,2.6606,2.6669,2.6675,2.6729,2.665,2.6652,2.6653,0,2.6249,2.6278,2.634,2.637,2.6385,2.6415,2.6451,2.6481,2.6513,2.6523,2.655,2.6556,2.66,2.658,2.6642,2.6615,2.6637,2.6652,2.6654,2.666,2.6637,2.6678,2.6747,2.6756,2.6665,2.6664,2.6663,0,2.6286,2.6341,2.6385,2.64,2.6437,2.6458,2.6475,2.6505,2.6528,2.6561,2.6576,2.6615,2.6637,2.6669,2.6686,2.667,2.6748,2.6729,2.6759,2.6759,2.6776,2.6775,2.6851,2.6789,2.6789,2.6789,2.6789,0,2.6345,2.6383,2.6402,2.6429,2.6473,2.6484,2.6528,2.6545,2.6571,2.6604,2.6609,2.664,2.6661,2.6696,2.6711,2.6761,2.6771,2.6782,2.6785,2.6781,2.678,2.6797,2.6794,2.6791,2.6791,2.679,2.679,0,2.6395,2.6408,2.6456,2.6486,2.6495,2.6525,2.6553,2.6581,2.6596,2.6637,2.6648,2.6673,2.6715,2.6735,2.6788,2.6798,2.6855,2.6856,2.6843,2.6845,2.6874,2.6871,2.6963,2.6977,2.6906,2.6906,2.6907,0,2.6431,2.646,2.6492,2.6513,2.6529,2.6563,2.6585,2.6598,2.6622,2.666,2.6685,2.6726,2.6759,2.6827,2.6852,2.6893,2.6895,2.6925,2.6902,2.6897,2.6897,2.6895,2.6899,2.6929,2.693,2.6931,2.6931,0,2.6496,2.6501,2.6531,2.6564,2.659,2.6618,2.6645,2.6663,2.668,2.6708,2.6748,2.6774,2.6827,2.6869,2.6911,2.6932,2.6936,2.6938,2.6947,2.6944,2.6936,2.6941,2.6855,2.6936,2.6935,2.6935,2.6935,2.6935,2.6541,2.6567,2.6593,2.6627,2.6648,2.6673,2.6701,2.6718,2.6751,2.6793,2.6799,2.6843,2.6876,2.6933,2.6956,2.6993,2.6986,2.7,2.7003,2.7006,2.7008,2.6929,2.7,2.7,2.7,2.7,2.7,0,2.6607,2.6623,2.6654,2.669,2.6718,2.6714,2.6745,2.6769,2.6806,2.6834,2.6866,2.6915,2.6955,2.6983,2.7025,2.7049,2.7052,2.706,2.7059,2.7064,2.7011,2.6999,2.7057,2.7057,2.7057,2.7057,2.7057,2.7057,2.6644,2.6687,2.6695,2.675,2.6768,2.6808,2.6825,2.685,2.6872,2.6924,2.6956,2.6973,2.7002,2.7046,2.7084,2.7091,2.7107,2.7116,2.7123,2.7073,2.7068,2.7062,2.7051,2.7119,2.7119,2.7173,2.7174,2.7174]}]]